Time,TemperatureF,DewpointF,PressureIn,WindDirection,WindDirectionDegrees,WindSpeedMPH,WindSpeedGustMPH,Humidity,HourlyPrecipIn,Conditions,Clouds,dailyrainin,SoftwareType,DateUTC
2013-03-28 00:00:00,36.5,30.0,30.02,NW,304,4.0,4.0,77,0.00,,,0.00,Wunderground v.1.15,2013-03-28 04:00:00,
2013-03-28 00:01:00,36.5,30.0,30.02,NNW,344,4.0,9.0,77,0.00,,,0.00,Wunderground v.1.15,2013-03-28 04:01:00,
2013-03-28 00:06:00,36.5,30.0,30.02,North,355,4.0,9.0,77,0.00,,,0.00,Wunderground v.1.15,2013-03-28 04:06:00,
2013-03-28 00:08:00,36.4,29.9,30.02,NNW,327,4.0,9.0,77,0.00,,,0.00,Wunderground v.1.15,2013-03-28 04:08:00,
2013-03-28 00:13:00,36.4,29.9,30.03,North,10,3.0,9.0,77,0.00,,,0.00,Wunderground v.1.15,2013-03-28 04:13:00,
2013-03-28 00:19:00,36.4,30.2,30.02,NNW,343,5.0,13.0,78,0.00,,,0.00,Wunderground v.1.15,2013-03-28 04:19:00,
2013-03-28 00:25:00,36.5,30.3,30.03,NNE,19,6.0,9.0,78,0.00,,,0.00,Wunderground v.1.15,2013-03-28 04:25:00,
2013-03-28 00:32:00,36.6,30.4,30.03,NW,323,6.0,10.0,78,0.00,,,0.00,Wunderground v.1.15,2013-03-28 04:32:00,
2013-03-28 00:38:00,36.5,30.3,30.02,NW,316,7.0,13.0,78,0.00,,,0.00,Wunderground v.1.15,2013-03-28 04:38:00,
2013-03-28 00:44:00,36.4,30.2,30.02,NNW,328,7.0,10.0,78,0.00,,,0.00,Wunderground v.1.15,2013-03-28 04:44:00,
2013-03-28 00:49:00,36.2,30.0,30.02,West,281,6.0,10.0,78,0.00,,,0.00,Wunderground v.1.15,2013-03-28 04:49:00,
2013-03-28 00:55:00,36.0,30.1,30.02,NW,325,5.0,9.0,79,0.00,,,0.00,Wunderground v.1.15,2013-03-28 04:55:00,
2013-03-28 01:00:00,35.9,30.0,30.02,NW,319,6.0,6.0,79,0.00,,,0.00,Wunderground v.1.15,2013-03-28 05:00:00,
2013-03-28 01:06:00,35.8,29.9,30.02,NW,322,7.0,16.0,79,0.00,,,0.00,Wunderground v.1.15,2013-03-28 05:06:00,
2013-03-28 01:13:00,35.7,30.1,30.02,NNE,32,7.0,16.0,80,0.00,,,0.00,Wunderground v.1.15,2013-03-28 05:13:00,
2013-03-28 01:19:00,35.6,30.0,30.02,NW,325,7.0,16.0,80,0.00,,,0.00,Wunderground v.1.15,2013-03-28 05:19:00,
2013-03-28 01:24:00,35.5,29.9,30.03,NNW,343,7.0,16.0,80,0.00,,,0.00,Wunderground v.1.15,2013-03-28 05:24:00,
2013-03-28 01:30:00,35.4,30.1,30.03,NW,320,6.0,6.0,81,0.00,,,0.00,Wunderground v.1.15,2013-03-28 05:30:00,
2013-03-28 01:35:00,35.5,30.2,30.03,North,355,6.0,16.0,81,0.00,,,0.00,Wunderground v.1.15,2013-03-28 05:35:00,
2013-03-28 01:41:00,35.5,30.2,30.02,NNW,331,7.0,16.0,81,0.00,,,0.00,Wunderground v.1.15,2013-03-28 05:41:00,
2013-03-28 01:46:00,35.4,30.1,30.03,North,350,7.0,16.0,81,0.00,,,0.00,Wunderground v.1.15,2013-03-28 05:46:00,
2013-03-28 01:52:00,35.4,30.1,30.02,NNW,339,7.0,16.0,81,0.00,,,0.00,Wunderground v.1.15,2013-03-28 05:52:00,
2013-03-28 01:57:00,35.3,30.4,30.02,North,355,7.0,16.0,82,0.00,,,0.00,Wunderground v.1.15,2013-03-28 05:57:00,
2013-03-28 02:02:00,35.2,30.3,30.02,WNW,296,6.0,16.0,82,0.00,,,0.00,Wunderground v.1.15,2013-03-28 06:02:00,
2013-03-28 02:08:00,35.1,30.2,30.02,North,9,7.0,16.0,82,0.00,,,0.00,Wunderground v.1.15,2013-03-28 06:08:00,
2013-03-28 02:13:00,35.1,30.2,30.02,NW,304,6.0,16.0,82,0.00,,,0.00,Wunderground v.1.15,2013-03-28 06:13:00,
2013-03-28 02:18:00,35.0,30.4,30.01,NW,308,7.0,16.0,83,0.00,,,0.00,Wunderground v.1.15,2013-03-28 06:18:00,
2013-03-28 02:24:00,35.0,30.4,30.01,NW,312,6.0,16.0,83,0.00,,,0.00,Wunderground v.1.15,2013-03-28 06:24:00,
2013-03-28 02:30:00,35.0,30.4,30.02,NNW,340,5.0,5.0,83,0.00,,,0.00,Wunderground v.1.15,2013-03-28 06:30:00,
2013-03-28 02:36:00,34.9,30.3,30.01,NNW,329,5.0,16.0,83,0.00,,,0.00,Wunderground v.1.15,2013-03-28 06:36:00,
2013-03-28 02:42:00,34.8,30.2,30.01,NW,316,4.0,16.0,83,0.00,,,0.00,Wunderground v.1.15,2013-03-28 06:42:00,
2013-03-28 02:47:00,34.8,30.2,30.01,WNW,292,5.0,16.0,83,0.00,,,0.00,Wunderground v.1.15,2013-03-28 06:47:00,
2013-03-28 02:53:00,34.8,30.2,30.01,NW,319,4.0,16.0,83,0.00,,,0.00,Wunderground v.1.15,2013-03-28 06:53:00,
2013-03-28 02:58:00,34.8,30.2,30.01,NW,324,4.0,16.0,83,0.00,,,0.00,Wunderground v.1.15,2013-03-28 06:58:00,
2013-03-28 03:04:00,34.8,30.2,30.01,NW,314,4.0,16.0,83,0.00,,,0.00,Wunderground v.1.15,2013-03-28 07:04:00,
2013-03-28 03:10:00,34.8,30.2,30.01,NW,317,3.0,16.0,83,0.00,,,0.00,Wunderground v.1.15,2013-03-28 07:10:00,
2013-03-28 03:16:00,34.8,30.5,30.01,NNW,327,3.0,16.0,84,0.00,,,0.00,Wunderground v.1.15,2013-03-28 07:16:00,
2013-03-28 03:21:00,34.8,30.5,30.01,NNW,328,3.0,6.0,84,0.00,,,0.00,Wunderground v.1.15,2013-03-28 07:21:00,
2013-03-28 03:27:00,34.8,30.5,30.01,NW,317,2.0,16.0,84,0.00,,,0.00,Wunderground v.1.15,2013-03-28 07:27:00,
2013-03-28 03:33:00,34.8,30.5,30.02,North,5,2.0,16.0,84,0.00,,,0.00,Wunderground v.1.15,2013-03-28 07:33:00,
2013-03-28 03:39:00,34.8,30.5,30.02,North,5,3.0,16.0,84,0.00,,,0.00,Wunderground v.1.15,2013-03-28 07:39:00,
2013-03-28 03:45:00,34.9,30.6,30.02,NNW,329,5.0,16.0,84,0.00,,,0.00,Wunderground v.1.15,2013-03-28 07:45:00,
2013-03-28 03:51:00,34.9,30.6,30.02,NNE,15,5.0,7.0,84,0.00,,,0.00,Wunderground v.1.15,2013-03-28 07:51:00,
2013-03-28 03:57:00,34.9,30.8,30.02,NNW,331,4.0,16.0,85,0.00,,,0.00,Wunderground v.1.15,2013-03-28 07:57:00,
2013-03-28 04:03:00,34.9,30.8,30.02,North,355,5.0,16.0,85,0.00,,,0.00,Wunderground v.1.15,2013-03-28 08:03:00,
2013-03-28 04:08:00,34.9,30.8,30.02,NW,317,5.0,16.0,85,0.00,,,0.00,Wunderground v.1.15,2013-03-28 08:08:00,
2013-03-28 04:14:00,34.8,30.8,30.02,NNW,331,6.0,16.0,85,0.00,,,0.00,Wunderground v.1.15,2013-03-28 08:14:00,
2013-03-28 04:20:00,34.7,30.9,30.02,North,9,6.0,6.0,86,0.00,,,0.00,Wunderground v.1.15,2013-03-28 08:20:00,
2013-03-28 04:26:00,34.7,30.9,30.01,NNW,327,4.0,16.0,86,0.00,,,0.00,Wunderground v.1.15,2013-03-28 08:26:00,
2013-03-28 04:32:00,34.6,30.8,30.01,NW,320,4.0,16.0,86,0.00,,,0.00,Wunderground v.1.15,2013-03-28 08:32:00,
2013-03-28 04:37:00,34.5,30.7,30.01,NNW,338,4.0,16.0,86,0.00,,,0.00,Wunderground v.1.15,2013-03-28 08:37:00,
2013-03-28 04:43:00,34.5,30.7,30.01,NW,321,4.0,16.0,86,0.00,,,0.00,Wunderground v.1.15,2013-03-28 08:43:00,
2013-03-28 04:49:00,34.5,30.7,30.01,NNW,329,4.0,16.0,86,0.00,,,0.00,Wunderground v.1.15,2013-03-28 08:49:00,
2013-03-28 04:55:00,34.5,30.7,30.01,North,5,4.0,16.0,86,0.00,,,0.00,Wunderground v.1.15,2013-03-28 08:55:00,
2013-03-28 05:01:00,34.4,30.6,30.01,NW,319,4.0,6.0,86,0.00,,,0.00,Wunderground v.1.15,2013-03-28 09:01:00,
2013-03-28 05:06:00,34.4,30.6,30.02,NNW,344,4.0,16.0,86,0.00,,,0.00,Wunderground v.1.15,2013-03-28 09:06:00,
2013-03-28 05:11:00,34.4,30.6,30.02,North,360,4.0,5.0,86,0.00,,,0.00,Wunderground v.1.15,2013-03-28 09:11:00,
2013-03-28 05:17:00,34.4,30.6,30.02,NNW,335,4.0,16.0,86,0.00,,,0.00,Wunderground v.1.15,2013-03-28 09:17:00,
2013-03-28 05:22:00,34.4,30.6,30.02,WNW,284,4.0,16.0,86,0.00,,,0.00,Wunderground v.1.15,2013-03-28 09:22:00,
2013-03-28 05:28:00,34.3,30.5,30.02,NW,326,5.0,16.0,86,0.00,,,0.00,Wunderground v.1.15,2013-03-28 09:28:00,
2013-03-28 05:34:00,34.3,30.5,30.03,North,350,5.0,16.0,86,0.00,,,0.00,Wunderground v.1.15,2013-03-28 09:34:00,
2013-03-28 05:40:00,34.3,30.8,30.03,North,349,5.0,16.0,87,0.00,,,0.00,Wunderground v.1.15,2013-03-28 09:40:00,
2013-03-28 05:45:00,34.3,30.8,30.03,NNW,344,4.0,16.0,87,0.00,,,0.00,Wunderground v.1.15,2013-03-28 09:45:00,
2013-03-28 05:50:00,34.3,30.8,30.03,North,9,6.0,16.0,87,0.00,,,0.00,Wunderground v.1.15,2013-03-28 09:50:00,
2013-03-28 05:56:00,34.3,30.8,30.03,NNW,331,7.0,16.0,87,0.00,,,0.00,Wunderground v.1.15,2013-03-28 09:56:00,
2013-03-28 06:02:00,34.3,30.8,30.03,North,5,6.0,16.0,87,0.00,,,0.00,Wunderground v.1.15,2013-03-28 10:02:00,
2013-03-28 06:08:00,34.3,30.8,30.03,NE,34,6.0,16.0,87,0.00,,,0.00,Wunderground v.1.15,2013-03-28 10:08:00,
2013-03-28 06:14:00,34.3,30.5,30.03,NW,314,6.0,16.0,86,0.00,,,0.00,Wunderground v.1.15,2013-03-28 10:14:00,
2013-03-28 06:20:00,34.3,30.5,30.03,North,355,7.0,16.0,86,0.00,,,0.00,Wunderground v.1.15,2013-03-28 10:20:00,
2013-03-28 06:27:00,34.3,30.5,30.03,NNW,340,5.0,16.0,86,0.00,,,0.00,Wunderground v.1.15,2013-03-28 10:27:00,
2013-03-28 06:33:00,34.3,30.5,30.03,North,355,5.0,16.0,86,0.00,,,0.00,Wunderground v.1.15,2013-03-28 10:33:00,
2013-03-28 06:39:00,34.3,30.5,30.04,NNW,346,6.0,16.0,86,0.00,,,0.00,Wunderground v.1.15,2013-03-28 10:39:00,
2013-03-28 06:44:00,34.3,30.5,30.04,NNW,340,5.0,16.0,86,0.00,,,0.00,Wunderground v.1.15,2013-03-28 10:44:00,
2013-03-28 06:50:00,34.4,30.6,30.04,NNW,339,5.0,5.0,86,0.00,,,0.00,Wunderground v.1.15,2013-03-28 10:50:00,
2013-03-28 06:56:00,34.3,30.5,30.04,North,5,4.0,16.0,86,0.00,,,0.00,Wunderground v.1.15,2013-03-28 10:56:00,
2013-03-28 07:02:00,34.3,30.5,30.04,NNW,339,4.0,16.0,86,0.00,,,0.00,Wunderground v.1.15,2013-03-28 11:02:00,
2013-03-28 07:07:00,34.2,30.4,30.04,North,355,4.0,16.0,86,0.00,,,0.00,Wunderground v.1.15,2013-03-28 11:07:00,
2013-03-28 07:12:00,34.1,30.6,30.04,NW,323,4.0,16.0,87,0.00,,,0.00,Wunderground v.1.15,2013-03-28 11:12:00,
2013-03-28 07:18:00,34.2,30.7,30.05,North,11,5.0,16.0,87,0.00,,,0.00,Wunderground v.1.15,2013-03-28 11:18:00,
2013-03-28 07:24:00,34.1,30.6,30.05,NW,325,4.0,16.0,87,0.00,,,0.00,Wunderground v.1.15,2013-03-28 11:24:00,
2013-03-28 07:30:00,34.2,30.7,30.05,NW,320,5.0,5.0,87,0.00,,,0.00,Wunderground v.1.15,2013-03-28 11:30:00,
2013-03-28 07:37:00,34.1,30.6,30.05,NW,324,5.0,16.0,87,0.00,,,0.00,Wunderground v.1.15,2013-03-28 11:37:00,
2013-03-28 07:43:00,34.3,30.8,30.05,NW,316,3.0,16.0,87,0.00,,,0.00,Wunderground v.1.15,2013-03-28 11:43:00,
2013-03-28 07:49:00,34.3,30.8,30.06,NNW,338,4.0,16.0,87,0.00,,,0.00,Wunderground v.1.15,2013-03-28 11:49:00,
2013-03-28 07:54:00,34.3,30.8,30.06,NNW,338,5.0,16.0,87,0.00,,,0.00,Wunderground v.1.15,2013-03-28 11:54:00,
2013-03-28 08:00:00,34.2,30.7,30.06,North,5,5.0,5.0,87,0.00,,,0.00,Wunderground v.1.15,2013-03-28 12:00:00,
2013-03-28 08:05:00,34.4,30.9,30.06,NNW,327,3.0,16.0,87,0.00,,,0.00,Wunderground v.1.15,2013-03-28 12:05:00,
2013-03-28 08:11:00,34.4,30.9,30.06,NNW,346,5.0,16.0,87,0.00,,,0.00,Wunderground v.1.15,2013-03-28 12:11:00,
2013-03-28 08:17:00,34.4,30.9,30.07,WNW,300,5.0,16.0,87,0.00,,,0.00,Wunderground v.1.15,2013-03-28 12:17:00,
2013-03-28 08:23:00,34.5,31.0,30.07,NW,317,3.0,16.0,87,0.00,,,0.00,Wunderground v.1.15,2013-03-28 12:23:00,
2013-03-28 08:29:00,34.4,30.9,30.07,NW,321,4.0,16.0,87,0.00,,,0.00,Wunderground v.1.15,2013-03-28 12:29:00,
2013-03-28 08:34:00,34.5,31.0,30.07,North,360,5.0,16.0,87,0.00,,,0.00,Wunderground v.1.15,2013-03-28 12:34:00,
2013-03-28 08:40:00,34.6,31.4,30.07,NW,317,5.0,5.0,88,0.00,,,0.00,Wunderground v.1.15,2013-03-28 12:40:00,
2013-03-28 08:46:00,34.6,31.1,30.07,NW,323,5.0,16.0,87,0.00,,,0.00,Wunderground v.1.15,2013-03-28 12:46:00,
2013-03-28 08:52:00,34.7,31.2,30.07,NNW,331,6.0,16.0,87,0.00,,,0.00,Wunderground v.1.15,2013-03-28 12:52:00,
2013-03-28 08:57:00,34.7,31.5,30.07,NW,313,5.0,16.0,88,0.00,,,0.00,Wunderground v.1.15,2013-03-28 12:57:00,
2013-03-28 09:02:00,34.7,31.5,30.07,North,11,5.0,16.0,88,0.00,,,0.00,Wunderground v.1.15,2013-03-28 13:02:00,
2013-03-28 09:07:00,34.5,31.6,30.07,NW,311,6.0,16.0,89,0.00,,,0.00,Wunderground v.1.15,2013-03-28 13:07:00,
2013-03-28 09:13:00,34.7,31.8,30.07,NW,315,5.0,16.0,89,0.00,,,0.00,Wunderground v.1.15,2013-03-28 13:13:00,
2013-03-28 09:19:00,34.7,31.8,30.07,NNW,338,4.0,16.0,89,0.00,,,0.00,Wunderground v.1.15,2013-03-28 13:19:00,
2013-03-28 09:25:00,34.8,31.9,30.07,NNW,342,5.0,16.0,89,0.00,,,0.00,Wunderground v.1.15,2013-03-28 13:25:00,
2013-03-28 09:31:00,35.0,32.1,30.07,NNW,336,5.0,16.0,89,0.00,,,0.00,Wunderground v.1.15,2013-03-28 13:31:00,
2013-03-28 09:37:00,35.1,31.9,30.08,NNW,346,5.0,16.0,88,0.00,,,0.00,Wunderground v.1.15,2013-03-28 13:37:00,
2013-03-28 09:42:00,35.2,32.3,30.07,NNW,341,6.0,16.0,89,0.00,,,0.00,Wunderground v.1.15,2013-03-28 13:42:00,
2013-03-28 09:47:00,35.3,32.1,30.08,NNW,338,6.0,16.0,88,0.00,,,0.00,Wunderground v.1.15,2013-03-28 13:47:00,
2013-03-28 09:53:00,35.3,32.1,30.08,NNW,329,7.0,16.0,88,0.00,,,0.00,Wunderground v.1.15,2013-03-28 13:53:00,
2013-03-28 09:59:00,35.4,32.5,30.08,North,355,6.0,16.0,89,0.00,,,0.00,Wunderground v.1.15,2013-03-28 13:59:00,
2013-03-28 10:05:00,35.6,32.7,30.08,NNW,330,5.0,16.0,89,0.00,,,0.00,Wunderground v.1.15,2013-03-28 14:05:00,
2013-03-28 10:10:00,35.7,32.5,30.08,NNE,17,5.0,16.0,88,0.00,,,0.00,Wunderground v.1.15,2013-03-28 14:10:00,
2013-03-28 10:15:00,35.8,32.9,30.08,WNW,301,4.0,16.0,89,0.00,,,0.00,Wunderground v.1.15,2013-03-28 14:15:00,
2013-03-28 10:20:00,35.9,33.0,30.09,North,355,4.0,16.0,89,0.00,,,0.00,Wunderground v.1.15,2013-03-28 14:20:00,
2013-03-28 10:26:00,36.0,33.1,30.09,NW,324,5.0,16.0,89,0.00,,,0.00,Wunderground v.1.15,2013-03-28 14:26:00,
2013-03-28 10:32:00,36.1,33.2,30.09,WNW,292,4.0,16.0,89,0.00,,,0.00,Wunderground v.1.15,2013-03-28 14:32:00,
2013-03-28 10:38:00,36.2,33.3,30.09,NNW,345,4.0,16.0,89,0.00,,,0.00,Wunderground v.1.15,2013-03-28 14:38:00,
2013-03-28 10:44:00,36.3,33.4,30.09,NNW,347,4.0,16.0,89,0.00,,,0.00,Wunderground v.1.15,2013-03-28 14:44:00,
2013-03-28 10:50:00,36.6,33.9,30.09,North,5,4.0,16.0,90,0.00,,,0.00,Wunderground v.1.15,2013-03-28 14:50:00,
2013-03-28 10:55:00,36.5,33.6,30.09,North,351,5.0,16.0,89,0.00,,,0.00,Wunderground v.1.15,2013-03-28 14:55:00,
2013-03-28 11:00:00,36.5,33.6,30.09,North,360,6.0,16.0,89,0.00,,,0.00,Wunderground v.1.15,2013-03-28 15:00:00,
2013-03-28 11:05:00,36.4,33.2,30.10,North,5,5.0,16.0,88,0.00,,,0.00,Wunderground v.1.15,2013-03-28 15:05:00,
2013-03-28 11:11:00,36.5,33.3,30.10,NW,323,4.0,16.0,88,0.00,,,0.00,Wunderground v.1.15,2013-03-28 15:11:00,
2013-03-28 11:18:00,36.8,33.6,30.10,North,11,4.0,16.0,88,0.00,,,0.00,Wunderground v.1.15,2013-03-28 15:18:00,
2013-03-28 11:24:00,37.1,33.9,30.10,NW,325,4.0,16.0,88,0.00,,,0.00,Wunderground v.1.15,2013-03-28 15:24:00,
2013-03-28 11:30:00,37.4,35.3,30.09,WNW,284,3.0,16.0,92,0.00,,,0.00,Wunderground v.1.15,2013-03-28 15:30:00,
2013-03-28 11:35:00,37.4,35.3,30.09,NNE,14,4.0,16.0,92,0.00,,,0.00,Wunderground v.1.15,2013-03-28 15:35:00,
2013-03-28 11:42:00,37.6,34.1,30.10,North,11,3.0,16.0,87,0.00,,,0.00,Wunderground v.1.15,2013-03-28 15:42:00,
2013-03-28 11:47:00,37.8,34.3,30.09,NNW,340,3.0,16.0,87,0.00,,,0.00,Wunderground v.1.15,2013-03-28 15:47:00,
2013-03-28 11:53:00,38.1,34.3,30.09,NNW,338,4.0,16.0,86,0.00,,,0.00,Wunderground v.1.15,2013-03-28 15:53:00,
2013-03-28 11:59:00,38.2,33.8,30.09,NE,36,6.0,16.0,84,0.00,,,0.00,Wunderground v.1.15,2013-03-28 15:59:00,
2013-03-28 12:05:00,38.2,34.1,30.10,NNW,336,5.0,16.0,85,0.00,,,0.00,Wunderground v.1.15,2013-03-28 16:05:00,
2013-03-28 12:11:00,38.6,34.2,30.09,NW,320,4.0,6.0,84,0.00,,,0.00,Wunderground v.1.15,2013-03-28 16:11:00,
2013-03-28 12:18:00,38.8,34.4,30.09,NNW,346,4.0,16.0,84,0.00,,,0.00,Wunderground v.1.15,2013-03-28 16:18:00,
2013-03-28 12:23:00,38.7,34.0,30.10,NNE,22,4.0,16.0,83,0.00,,,0.00,Wunderground v.1.15,2013-03-28 16:23:00,
2013-03-28 12:29:00,38.5,33.8,30.10,NNW,333,6.0,16.0,83,0.00,,,0.00,Wunderground v.1.15,2013-03-28 16:29:00,
2013-03-28 12:34:00,38.7,34.3,30.09,North,5,5.0,16.0,84,0.00,,,0.00,Wunderground v.1.15,2013-03-28 16:34:00,
2013-03-28 12:40:00,39.0,34.3,30.09,WNW,298,5.0,5.0,83,0.00,,,0.00,Wunderground v.1.15,2013-03-28 16:40:00,
2013-03-28 12:45:00,39.2,34.5,30.09,NNW,330,5.0,16.0,83,0.00,,,0.00,Wunderground v.1.15,2013-03-28 16:45:00,
2013-03-28 12:52:00,39.5,34.8,30.09,WNW,288,5.0,16.0,83,0.00,,,0.00,Wunderground v.1.15,2013-03-28 16:52:00,
2013-03-28 12:57:00,39.8,35.1,30.09,NNW,340,5.0,16.0,83,0.00,,,0.00,Wunderground v.1.15,2013-03-28 16:57:00,
2013-03-28 13:03:00,40.1,35.4,30.09,WNW,298,5.0,16.0,83,0.00,,,0.00,Wunderground v.1.15,2013-03-28 17:03:00,
2013-03-28 13:09:00,40.5,35.4,30.09,WNW,301,5.0,16.0,82,0.00,,,0.00,Wunderground v.1.15,2013-03-28 17:09:00,
2013-03-28 13:15:00,40.5,34.8,30.09,NW,313,6.0,16.0,80,0.00,,,0.00,Wunderground v.1.15,2013-03-28 17:15:00,
2013-03-28 13:21:00,40.6,35.2,30.09,NW,325,7.0,16.0,81,0.00,,,0.00,Wunderground v.1.15,2013-03-28 17:21:00,
2013-03-28 13:27:00,40.9,35.5,30.09,NNW,330,6.0,16.0,81,0.00,,,0.00,Wunderground v.1.15,2013-03-28 17:27:00,
2013-03-28 13:32:00,41.1,35.1,30.09,NW,325,6.0,16.0,79,0.00,,,0.00,Wunderground v.1.15,2013-03-28 17:32:00,
2013-03-28 13:38:00,40.7,34.4,30.09,NW,314,6.0,16.0,78,0.00,,,0.00,Wunderground v.1.15,2013-03-28 17:38:00,
2013-03-28 13:43:00,40.5,34.5,30.09,WNW,286,6.0,16.0,79,0.00,,,0.00,Wunderground v.1.15,2013-03-28 17:43:00,
2013-03-28 13:49:00,40.8,34.8,30.09,NNW,327,6.0,16.0,79,0.00,,,0.00,Wunderground v.1.15,2013-03-28 17:49:00,
2013-03-28 13:55:00,41.0,34.7,30.09,NNW,332,6.0,16.0,78,0.00,,,0.00,Wunderground v.1.15,2013-03-28 17:55:00,
2013-03-28 14:01:00,40.9,34.6,30.09,NNW,348,6.0,16.0,78,0.00,,,0.00,Wunderground v.1.15,2013-03-28 18:01:00,
2013-03-28 14:06:00,41.0,34.7,30.09,NNW,346,6.0,16.0,78,0.00,,,0.00,Wunderground v.1.15,2013-03-28 18:06:00,
2013-03-28 14:13:00,41.0,34.3,30.08,North,10,6.0,16.0,77,0.00,,,0.00,Wunderground v.1.15,2013-03-28 18:13:00,
2013-03-28 14:19:00,40.8,34.1,30.08,NNW,337,7.0,16.0,77,0.00,,,0.00,Wunderground v.1.15,2013-03-28 18:19:00,
2013-03-28 14:25:00,40.7,34.0,30.09,NNW,333,7.0,16.0,77,0.00,,,0.00,Wunderground v.1.15,2013-03-28 18:25:00,
2013-03-28 14:31:00,40.7,34.4,30.08,NW,319,5.0,16.0,78,0.00,,,0.00,Wunderground v.1.15,2013-03-28 18:31:00,
2013-03-28 14:37:00,40.9,34.6,30.09,NNW,338,5.0,16.0,78,0.00,,,0.00,Wunderground v.1.15,2013-03-28 18:37:00,
2013-03-28 14:42:00,40.9,34.6,30.08,NNW,332,5.0,16.0,78,0.00,,,0.00,Wunderground v.1.15,2013-03-28 18:42:00,
2013-03-28 14:48:00,41.1,34.8,30.09,NW,318,4.0,16.0,78,0.00,,,0.00,Wunderground v.1.15,2013-03-28 18:48:00,
2013-03-28 14:54:00,41.2,34.2,30.08,NNW,329,5.0,16.0,76,0.00,,,0.00,Wunderground v.1.15,2013-03-28 18:54:00,
2013-03-28 15:00:00,41.2,34.5,30.08,North,355,5.0,5.0,77,0.00,,,0.00,Wunderground v.1.15,2013-03-28 19:00:00,
2013-03-28 15:07:00,41.3,34.6,30.08,NNW,342,5.0,16.0,77,0.00,,,0.00,Wunderground v.1.15,2013-03-28 19:07:00,
2013-03-28 15:13:00,41.6,34.9,30.08,NW,326,3.0,16.0,77,0.00,,,0.00,Wunderground v.1.15,2013-03-28 19:13:00,
2013-03-28 15:19:00,41.8,34.8,30.08,North,355,3.0,16.0,76,0.00,,,0.00,Wunderground v.1.15,2013-03-28 19:19:00,
2013-03-28 15:24:00,42.0,35.0,30.08,NW,315,3.0,16.0,76,0.00,,,0.00,Wunderground v.1.15,2013-03-28 19:24:00,
2013-03-28 15:30:00,42.0,34.3,30.08,NNW,337,4.0,16.0,74,0.00,,,0.00,Wunderground v.1.15,2013-03-28 19:30:00,
2013-03-28 15:36:00,42.0,34.0,30.08,NNE,29,8.0,16.0,73,0.00,,,0.00,Wunderground v.1.15,2013-03-28 19:36:00,
2013-03-28 15:41:00,41.9,34.2,30.08,NNE,24,8.0,16.0,74,0.00,,,0.00,Wunderground v.1.15,2013-03-28 19:41:00,
2013-03-28 15:46:00,42.0,34.0,30.08,NNE,17,9.0,16.0,73,0.00,,,0.00,Wunderground v.1.15,2013-03-28 19:46:00,
2013-03-28 15:52:00,42.2,34.2,30.08,NNW,336,9.0,16.0,73,0.00,,,0.00,Wunderground v.1.15,2013-03-28 19:52:00,
2013-03-28 15:57:00,42.4,34.4,30.08,North,5,8.0,16.0,73,0.00,,,0.00,Wunderground v.1.15,2013-03-28 19:57:00,
2013-03-28 16:02:00,42.6,34.5,30.07,NW,313,7.0,16.0,73,0.00,,,0.00,Wunderground v.1.15,2013-03-28 20:02:00,
2013-03-28 16:08:00,42.9,34.5,30.07,NNW,336,7.0,16.0,72,0.00,,,0.00,Wunderground v.1.15,2013-03-28 20:08:00,
2013-03-28 16:13:00,43.1,34.7,30.08,North,9,7.0,16.0,72,0.00,,,0.00,Wunderground v.1.15,2013-03-28 20:13:00,
2013-03-28 16:18:00,43.2,34.4,30.08,NNW,333,6.0,16.0,71,0.00,,,0.00,Wunderground v.1.15,2013-03-28 20:18:00,
2013-03-28 16:23:00,43.3,34.5,30.08,NW,322,6.0,16.0,71,0.00,,,0.00,Wunderground v.1.15,2013-03-28 20:23:00,
2013-03-28 16:29:00,43.4,34.3,30.08,NW,311,6.0,16.0,70,0.00,,,0.00,Wunderground v.1.15,2013-03-28 20:29:00,
2013-03-28 16:35:00,43.4,34.3,30.08,NNW,329,6.0,16.0,70,0.00,,,0.00,Wunderground v.1.15,2013-03-28 20:35:00,
2013-03-28 16:41:00,43.7,34.6,30.08,NNW,338,6.0,16.0,70,0.00,,,0.00,Wunderground v.1.15,2013-03-28 20:41:00,
2013-03-28 16:46:00,43.8,34.3,30.08,NNW,333,6.0,16.0,69,0.00,,,0.00,Wunderground v.1.15,2013-03-28 20:46:00,
2013-03-28 16:52:00,44.0,34.1,30.08,NNW,332,7.0,16.0,68,0.00,,,0.00,Wunderground v.1.15,2013-03-28 20:52:00,
2013-03-28 16:57:00,44.0,34.1,30.08,NNW,342,7.0,16.0,68,0.00,,,0.00,Wunderground v.1.15,2013-03-28 20:57:00,
2013-03-28 17:02:00,44.0,34.1,30.08,North,5,7.0,16.0,68,0.00,,,0.00,Wunderground v.1.15,2013-03-28 21:02:00,
2013-03-28 17:08:00,43.7,33.5,30.08,North,10,8.0,16.0,67,0.00,,,0.00,Wunderground v.1.15,2013-03-28 21:08:00,
2013-03-28 17:13:00,43.7,33.8,30.08,NNW,333,7.0,16.0,68,0.00,,,0.00,Wunderground v.1.15,2013-03-28 21:13:00,
2013-03-28 17:18:00,43.7,33.8,30.08,NNW,342,6.0,16.0,68,0.00,,,0.00,Wunderground v.1.15,2013-03-28 21:18:00,
2013-03-28 17:23:00,43.7,33.5,30.08,NNW,327,6.0,16.0,67,0.00,,,0.00,Wunderground v.1.15,2013-03-28 21:23:00,
2013-03-28 17:29:00,43.6,33.4,30.08,North,350,6.0,16.0,67,0.00,,,0.00,Wunderground v.1.15,2013-03-28 21:29:00,
2013-03-28 17:35:00,43.5,33.3,30.08,North,355,8.0,16.0,67,0.00,,,0.00,Wunderground v.1.15,2013-03-28 21:35:00,
2013-03-28 17:41:00,43.4,33.2,30.09,NNW,346,8.0,16.0,67,0.00,,,0.00,Wunderground v.1.15,2013-03-28 21:41:00,
2013-03-28 17:47:00,43.4,33.2,30.09,WNW,293,6.0,16.0,67,0.00,,,0.00,Wunderground v.1.15,2013-03-28 21:47:00,
2013-03-28 17:53:00,43.4,33.2,30.09,WNW,290,5.0,16.0,67,0.00,,,0.00,Wunderground v.1.15,2013-03-28 21:53:00,
2013-03-28 18:00:00,43.3,32.7,30.09,NNE,30,8.0,16.0,66,0.00,,,0.00,Wunderground v.1.15,2013-03-28 22:00:00,
2013-03-28 18:05:00,43.3,33.1,30.10,NNW,333,8.0,16.0,67,0.00,,,0.00,Wunderground v.1.15,2013-03-28 22:05:00,
2013-03-28 18:11:00,43.3,32.7,30.10,NNW,346,6.0,16.0,66,0.00,,,0.00,Wunderground v.1.15,2013-03-28 22:11:00,
2013-03-28 18:16:00,43.4,32.8,30.10,NNW,342,6.0,16.0,66,0.00,,,0.00,Wunderground v.1.15,2013-03-28 22:16:00,
2013-03-28 18:22:00,43.3,32.7,30.10,WNW,302,7.0,16.0,66,0.00,,,0.00,Wunderground v.1.15,2013-03-28 22:22:00,
2013-03-28 18:28:00,43.2,32.6,30.10,NNW,347,6.0,16.0,66,0.00,,,0.00,Wunderground v.1.15,2013-03-28 22:28:00,
2013-03-28 18:33:00,43.1,32.5,30.11,North,355,7.0,16.0,66,0.00,,,0.00,Wunderground v.1.15,2013-03-28 22:33:00,
2013-03-28 18:39:00,43.0,32.4,30.11,NNW,338,8.0,16.0,66,0.00,,,0.00,Wunderground v.1.15,2013-03-28 22:39:00,
2013-03-28 18:44:00,42.9,32.3,30.11,NNE,17,6.0,16.0,66,0.00,,,0.00,Wunderground v.1.15,2013-03-28 22:44:00,
2013-03-28 18:50:00,42.8,32.2,30.11,NNW,340,5.0,16.0,66,0.00,,,0.00,Wunderground v.1.15,2013-03-28 22:50:00,
2013-03-28 18:57:00,42.7,32.1,30.12,NW,312,8.0,16.0,66,0.00,,,0.00,Wunderground v.1.15,2013-03-28 22:57:00,
2013-03-28 19:03:00,42.5,31.9,30.11,WNW,302,8.0,16.0,66,0.00,,,0.00,Wunderground v.1.15,2013-03-28 23:03:00,
2013-03-28 19:08:00,42.4,32.2,30.11,North,10,7.0,16.0,67,0.00,,,0.00,Wunderground v.1.15,2013-03-28 23:08:00,
2013-03-28 19:14:00,42.3,32.1,30.12,North,11,7.0,16.0,67,0.00,,,0.00,Wunderground v.1.15,2013-03-28 23:14:00,
2013-03-28 19:20:00,42.2,32.0,30.12,NNW,346,6.0,16.0,67,0.00,,,0.00,Wunderground v.1.15,2013-03-28 23:20:00,
2013-03-28 19:25:00,42.2,32.0,30.12,NNW,337,7.0,16.0,67,0.00,,,0.00,Wunderground v.1.15,2013-03-28 23:25:00,
2013-03-28 19:30:00,42.1,32.3,30.12,NNW,348,6.0,16.0,68,0.00,,,0.00,Wunderground v.1.15,2013-03-28 23:30:00,
2013-03-28 19:37:00,41.9,32.1,30.13,North,5,6.0,16.0,68,0.00,,,0.00,Wunderground v.1.15,2013-03-28 23:37:00,
2013-03-28 19:43:00,41.8,32.0,30.13,NW,326,7.0,16.0,68,0.00,,,0.00,Wunderground v.1.15,2013-03-28 23:43:00,
2013-03-28 19:49:00,41.7,32.3,30.13,North,360,8.0,16.0,69,0.00,,,0.00,Wunderground v.1.15,2013-03-28 23:49:00,
2013-03-28 19:55:00,41.6,32.2,30.14,NW,308,8.0,16.0,69,0.00,,,0.00,Wunderground v.1.15,2013-03-28 23:55:00,
2013-03-28 20:00:00,41.5,32.4,30.14,WNW,298,9.0,9.0,70,0.00,,,0.00,Wunderground v.1.15,2013-03-29 00:00:00,
2013-03-28 20:07:00,41.4,32.3,30.14,NW,323,7.0,16.0,70,0.00,,,0.00,Wunderground v.1.15,2013-03-29 00:07:00,
2013-03-28 20:12:00,41.3,32.2,30.14,NW,316,7.0,16.0,70,0.00,,,0.00,Wunderground v.1.15,2013-03-29 00:12:00,
2013-03-28 20:18:00,41.1,32.4,30.14,NW,311,6.0,16.0,71,0.00,,,0.00,Wunderground v.1.15,2013-03-29 00:18:00,
2013-03-28 20:24:00,41.0,32.3,30.15,North,360,8.0,16.0,71,0.00,,,0.00,Wunderground v.1.15,2013-03-29 00:24:00,
2013-03-28 20:29:00,41.0,32.3,30.15,NNW,332,8.0,16.0,71,0.00,,,0.00,Wunderground v.1.15,2013-03-29 00:29:00,
2013-03-28 20:34:00,40.9,32.6,30.15,North,360,6.0,16.0,72,0.00,,,0.00,Wunderground v.1.15,2013-03-29 00:34:00,
2013-03-28 20:40:00,40.8,32.5,30.15,NW,325,6.0,6.0,72,0.00,,,0.00,Wunderground v.1.15,2013-03-29 00:40:00,
2013-03-28 20:46:00,40.7,32.4,30.15,North,11,6.0,16.0,72,0.00,,,0.00,Wunderground v.1.15,2013-03-29 00:46:00,
2013-03-28 20:52:00,40.6,32.3,30.15,North,355,8.0,16.0,72,0.00,,,0.00,Wunderground v.1.15,2013-03-29 00:52:00,
2013-03-28 20:58:00,40.5,32.5,30.16,NNW,338,8.0,16.0,73,0.00,,,0.00,Wunderground v.1.15,2013-03-29 00:58:00,
2013-03-28 21:04:00,40.5,32.5,30.16,North,355,8.0,16.0,73,0.00,,,0.00,Wunderground v.1.15,2013-03-29 01:04:00,
2013-03-28 21:09:00,40.4,32.4,30.16,North,9,7.0,16.0,73,0.00,,,0.00,Wunderground v.1.15,2013-03-29 01:09:00,
2013-03-28 21:15:00,40.4,32.4,30.17,NNW,328,6.0,16.0,73,0.00,,,0.00,Wunderground v.1.15,2013-03-29 01:15:00,
2013-03-28 21:21:00,40.3,32.3,30.17,NW,317,5.0,16.0,73,0.00,,,0.00,Wunderground v.1.15,2013-03-29 01:21:00,
2013-03-28 21:27:00,40.2,31.9,30.17,NNE,19,7.0,16.0,72,0.00,,,0.00,Wunderground v.1.15,2013-03-29 01:27:00,
2013-03-28 21:33:00,40.2,31.9,30.17,NNE,15,7.0,16.0,72,0.00,,,0.00,Wunderground v.1.15,2013-03-29 01:33:00,
2013-03-28 21:39:00,40.2,31.9,30.17,NW,317,5.0,16.0,72,0.00,,,0.00,Wunderground v.1.15,2013-03-29 01:39:00,
2013-03-28 21:45:00,40.1,32.1,30.17,NW,313,6.0,16.0,73,0.00,,,0.00,Wunderground v.1.15,2013-03-29 01:45:00,
2013-03-28 21:52:00,40.0,32.0,30.17,NNW,348,6.0,16.0,73,0.00,,,0.00,Wunderground v.1.15,2013-03-29 01:52:00,
2013-03-28 21:58:00,39.9,31.9,30.17,NNW,340,6.0,16.0,73,0.00,,,0.00,Wunderground v.1.15,2013-03-29 01:58:00,
2013-03-28 22:03:00,39.9,31.9,30.17,WNW,286,7.0,16.0,73,0.00,,,0.00,Wunderground v.1.15,2013-03-29 02:03:00,
2013-03-28 22:08:00,39.8,31.8,30.17,NNW,327,7.0,16.0,73,0.00,,,0.00,Wunderground v.1.15,2013-03-29 02:08:00,
2013-03-28 22:14:00,39.7,31.4,30.17,NNW,344,6.0,16.0,72,0.00,,,0.00,Wunderground v.1.15,2013-03-29 02:14:00,
2013-03-28 22:20:00,39.7,31.4,30.17,NNW,342,7.0,16.0,72,0.00,,,0.00,Wunderground v.1.15,2013-03-29 02:20:00,
2013-03-28 22:25:00,39.6,31.3,30.17,NNW,339,7.0,16.0,72,0.00,,,0.00,Wunderground v.1.15,2013-03-29 02:25:00,
2013-03-28 22:31:00,39.5,31.6,30.17,NW,312,8.0,16.0,73,0.00,,,0.00,Wunderground v.1.15,2013-03-29 02:31:00,
2013-03-28 22:37:00,39.5,31.6,30.17,North,350,9.0,16.0,73,0.00,,,0.00,Wunderground v.1.15,2013-03-29 02:37:00,
2013-03-28 22:43:00,39.4,31.5,30.17,NW,322,9.0,16.0,73,0.00,,,0.00,Wunderground v.1.15,2013-03-29 02:43:00,
2013-03-28 22:49:00,39.3,31.7,30.18,NNW,346,7.0,16.0,74,0.00,,,0.00,Wunderground v.1.15,2013-03-29 02:49:00,
2013-03-28 22:54:00,39.2,31.6,30.18,NNW,327,7.0,16.0,74,0.00,,,0.00,Wunderground v.1.15,2013-03-29 02:54:00,
2013-03-28 23:00:00,39.1,31.8,30.18,NNW,335,7.0,7.0,75,0.00,,,0.00,Wunderground v.1.15,2013-03-29 03:00:00,
2013-03-28 23:06:00,38.9,31.6,30.18,North,355,7.0,16.0,75,0.00,,,0.00,Wunderground v.1.15,2013-03-29 03:06:00,
2013-03-28 23:12:00,38.8,31.6,30.17,NNW,341,8.0,16.0,75,0.00,,,0.00,Wunderground v.1.15,2013-03-29 03:12:00,
2013-03-28 23:18:00,38.8,31.6,30.17,NW,313,7.0,16.0,75,0.00,,,0.00,Wunderground v.1.15,2013-03-29 03:18:00,
2013-03-28 23:24:00,38.8,31.6,30.18,NNW,341,8.0,16.0,75,0.00,,,0.00,Wunderground v.1.15,2013-03-29 03:24:00,
2013-03-28 23:29:00,38.8,31.6,30.18,North,355,7.0,16.0,75,0.00,,,0.00,Wunderground v.1.15,2013-03-29 03:29:00,
2013-03-28 23:35:00,38.8,31.6,30.18,NNW,333,6.0,16.0,75,0.00,,,0.00,Wunderground v.1.15,2013-03-29 03:35:00,
2013-03-28 23:40:00,38.8,31.6,30.18,NNW,348,6.0,16.0,75,0.00,,,0.00,Wunderground v.1.15,2013-03-29 03:40:00,
2013-03-28 23:45:00,38.8,31.6,30.18,NNW,331,6.0,16.0,75,0.00,,,0.00,Wunderground v.1.15,2013-03-29 03:45:00,
2013-03-28 23:50:00,38.9,31.6,30.18,NW,312,5.0,16.0,75,0.00,,,0.00,Wunderground v.1.15,2013-03-29 03:50:00,
2013-03-28 23:56:00,38.9,31.6,30.18,NW,324,5.0,16.0,75,0.00,,,0.00,Wunderground v.1.15,2013-03-29 03:56:00,